Regional Weather Roundup
Issued by NWS

Home | Current Version | Previous Version | Text Only | Print | Product List | Glossary On
Versions: 1 2 3 4 5 6 7 8 9 10 11 12 13 14 15 16 17 18 19 20 21 22 23 24 25 26 27 28 29 30 31 32 33 34 35 36 37 38 39 40 41 42 43 44 45 46 47 48 49 50
000
ASUS45 KREV 220910
RWRNV
NEVADA REGIONAL WEATHER ROUNDUP
NATIONAL WEATHER SERVICE RENO NV
200 AM PDT FRI MAY 22 2015

NOTE: "FAIR" INDICATES FEW OR NO CLOUDS BELOW 12,000 FEET WITH NO
SIGNIFICANT WEATHER AND/OR OBSTRUCTIONS TO VISIBILITY.

NVZ001-003-004-221000-
WESTERN NEVADA

CITY           SKY/WX    TMP DP  RH WIND       PRES   REMARKS
RENO           CLOUDY    50  45  83 CALM      29.96F
CARSON CITY    CLOUDY    48  46  93 CALM      29.97S
MINDEN         CLOUDY    46  46 100 CALM      29.98
SLIDE MTN        N/A     32  32 100 N8          N/A
PYRAMID LAKE     N/A     50 N/A N/A W3          N/A
FALLON         CLOUDY    51  44  77 SW5       29.93S
LOVELOCK       CLOUDY    48  46  93 CALM      29.92S
$$

NVZ002-CAZ072-073-221000-
NORTHERN AND CENTRAL SIERRA

CITY           SKY/WX    TMP DP  RH WIND       PRES   REMARKS
S. LAKE TAHOE  LGT RAIN  43  39  86 CALM      29.98F
TRUCKEE        CLOUDY    41  41 100 CALM      30.00S
SQUAW VLY 8000   N/A     36  34  93 NW7         N/A
SUSANVILLE     CLOUDY    50  46  87 W5        29.96F
BLUE CANYON    FOG       44  41  89 W3        30.00S VSB<1/4
MAMMOTH LAKES  CLOUDY    37  37 100 W6        29.99S
BRIDGEPORT     CLOUDY    40  36  86 CALM      29.96F
$$

NVZ030-031-036-221000-
NORTHERN NEVADA

CITY           SKY/WX    TMP DP  RH WIND       PRES   REMARKS
ELKO           CLOUDY    50  44  80 S5        29.93S
WINNEMUCCA     MOCLDY    43  40  89 CALM        N/A
WENDOVER       MOCLDY    52  46  82 W3        29.90F
$$

NVZ035-037-221000-
CENTRAL NEVADA

CITY           SKY/WX    TMP DP  RH WIND       PRES   REMARKS
ELY            CLOUDY    41  37  86 S8        29.97S
EUREKA           N/A     44  39  82 CALM      29.96S
$$

NVZ013-014-221000-
SOUTH CENTRAL NEVADA

CITY           SKY/WX    TMP DP  RH WIND       PRES   REMARKS
TONOPAH        CLOUDY    51  40  65 MISG      29.92S
$$

NVZ017-020-022-221000-
SOUTHERN NEVADA

CITY           SKY/WX    TMP DP  RH WIND       PRES   REMARKS
LAS VEGAS      CLOUDY    66  38  35 S14       29.75S
N. LAS VEGAS   MOCLDY    65  34  31 SE3       29.78S
NELLIS AFB     MOCLDY    67  38  34 S10       29.77S
HENDERSON      MOCLDY    63  40  42 S16       29.81F
MERCURY        MOCLDY    58  33  39 NW7       29.83R
$$



USA.gov is the U.S. government's official web portal to all federal, state and local government web resources and services.